Overview Statistics Trail Chart Weather Telemetry Raw packets
 

This is the latest recevied weather packets stored in our database for station/object VE3EP-1. If no packets are shown the sender has not sent any weather packets the latest 10 day(s).

<< 34 35 36 37 38 39 40 >>
Time Temp. Humidity Pressure Rain* Wind** Luminosity Snow
1787881447 19.44° C 90% 1015.6 hPa 0 mm - - -
1787880847 19.44° C 88% 1015.5 hPa 0 mm - - -
1787880247 20° C 86% 1015.6 hPa 0 mm - - -
1787879647 20.56° C 85% 1015.2 hPa 0 mm - - -
1787879047 20.56° C 85% 1015 hPa 0 mm - - -
1787878450 20.56° C 86% 1014.7 hPa 0 mm - - -
1787877847 20.56° C 85% 1014.8 hPa 0 mm - - -
1787877247 21.11° C 86% 1014.6 hPa 0 mm - - -
1787876648 21.11° C 86% 1014.6 hPa 0 mm - - -
1787875448 21.11° C 87% 1014.3 hPa 0 mm - - -
1787874847 21.11° C 86% 1014.2 hPa 0 mm - - -
1787874247 21.67° C 87% 1014.2 hPa 0 mm - - -
1787873647 21.67° C 87% 1014.3 hPa 0 mm - - -
1787873047 21.67° C 86% 1014.1 hPa 0 mm - - -
1787872448 22.22° C 85% 1014 hPa 0 mm - - -
1787871847 22.22° C 84% 1014 hPa 0 mm - - -
1787871247 22.22° C 84% 1014.1 hPa 0 mm - - -
1787870647 22.22° C 83% 1014 hPa 0 mm - - -
1787868847 22.78° C 80% 1014 hPa 0 mm - - -
1787868248 22.78° C 81% 1013.9 hPa 0 mm - - -
1787866447 23.33° C 79% 1013.7 hPa 0 mm - - -
1787865847 23.33° C 78% 1013.5 hPa 0 mm - - -
1787865247 23.33° C 77% 1013.8 hPa 0 mm - - -
1787864647 23.33° C 76% 1013.7 hPa 0 mm - - -
1787864047 23.33° C 79% 1013.8 hPa 0 mm - - -

* Rain latest hour (hover to see other rain measurements)
** Current wind speed in m/s (hover to see current wind gust speed)